Regional Weather Roundup
Issued by NWS Albany, NY

Home | Current Version | Previous Version | Text Only | Print | Product List | Glossary On
Versions: 1 2 3 4 5 6 7 8 9 10 11 12 13 14 15 16 17 18 19 20 21 22 23 24 25 26 27 28 29 30 31 32 33 34 35 36 37 38 39 40 41 42 43 44 45 46
000
ASUS41 KALY 270710
RWRALY

NEW YORK STATE HOURLY WEATHER ROUNDUP
NATIONAL WEATHER SERVICE ALBANY NY
300 AM EDT THU AUG 27 2015

NOTE: "FAIR" INDICATES FEW OR NO CLOUDS BELOW 12,000 FEET WITH NO
SIGNIFICANT WEATHER AND/OR NO OBSTRUCTIONS TO VISIBILITY.

NYZ032-033-038>043-046>054-057>066-NYZ062>081-270800-
EAST


CITY           SKY/WX    TMP DP  RH WIND       PRES   REMARKS
ALBANY         MOCLDY    64  54  69 W3        30.01F
GLENS FALLS    CLEAR     61  53  75 SW6       29.99F
POUGHKEEPSIE   CLEAR     58  55  90 E3        30.00F
MONTGOMERY     CLOUDY    63  56  78 W6        30.01F
WHITE PLAINS   CLEAR     63  54  72 N6        30.00F
ISLIP          CLEAR     64  58  80 NW6       29.97F
NEW YORK CITY  PTCLDY    71  55  56 NW8       30.00F
CENTRAL PARK   CLEAR     69  54  58 CALM      30.04F
$$

NYZ005>009-017-018-044>046-055-056-270800-
CENTRAL


CITY           SKY/WX    TMP DP  RH WIND       PRES   REMARKS
FULTON         LGT RAIN  61  58  90 SW6       30.03F FOG
SYRACUSE       DRIZZLE   60  59  96 W12       30.04S FOG
ROME           CLOUDY    61  58  90 W8        30.04F
ELMIRA         CLOUDY    58  57  97 W5        30.07F
BINGHAMTON     CLOUDY    57  55  93 W6        30.07F
MONTICELLO     CLOUDY    57  55  94 NW5       30.06F
$$

NYZ026>034-041>043-270800-
NORTH


CITY           SKY/WX    TMP DP  RH WIND       PRES   REMARKS
WATERTOWN      CLOUDY    61  56  83 CALM      30.01F
FORT DRUM      NOT AVBL
MASSENA        CLOUDY    62  56  80 W7        29.98F
SARANAC LAKE   CLOUDY    58  55  90 SW6       30.00S
PLATTSBURGH    CLOUDY    64  55  72 VRB3      29.96F
$$

NYZ001>004-010>016-019>021-270800-
WEST


CITY           SKY/WX    TMP DP  RH WIND       PRES   REMARKS
NIAGARA FALLS  CLOUDY    59  52  77 W6        30.08F
BUFFALO        PTCLDY    55  50  83 S6        30.09S
DUNKIRK        CLOUDY    61  53  75 NW5       30.10F
JAMESTOWN      CLOUDY    55  52  88 NW5       30.11F
WELLSVILLE     CLOUDY    56  53  90 W5        30.12F
ROCHESTER      CLOUDY    60  55  83 SW8       30.07S
PENN YAN       PTCLDY    59  53  80 W3        30.08F
$$

             KEY
       WCI = WIND CHILL INDEX
       VSB = VISIBILITY
       HX  = HEAT INDEX
$$


USA.gov is the U.S. government's official web portal to all federal, state and local government web resources and services.